« Back
NWS Peachtree City, Ga » Text Product » GA Regional Weather Roundup


Printer-friendly Version
Current Version              Previous Versions:   1  2  3  4  5  6  7  8  9  

Regional Weather Roundup

084
ASUS42 KFFC 251903
RWRGA
WEATHER ROUNDUP FOR GEORGIA
NATIONAL WEATHER SERVICE PEACHTREE CITY GA
300 PM EDT SUN SEP 25 2016

NOTE: "FAIR" INDICATES FEW OR NO CLOUDS BELOW 12,000 FEET WITH NO
SIGNIFICANT WEATHER AND/OR OBSTRUCTIONS TO VISIBILITY.

* = USE WITH CAUTION. THE STATIONS MARKED WITH AN ASTERISK MAY NOT
REPORT WEATHER SUCH AS PRECIPITATION, FOG, OR THUNDER AND ARE NOT
QUALITY CONTROLLED BY NWS.

THE REMARK "TC" DENOTES TEMPERATURE READING IN DEGREES CELSIUS.

GAZ001>058-252000-
NORTH GEORGIA

CITY           SKY/WX    TMP DP  RH WIND       PRES   REMARKS
ATLANTA        MOSUNNY   90  58  33 SE5       30.07F
ATHENS         MOSUNNY   93  64  38 NE5       30.06F HX  94
CHAMBLEE       MOSUNNY   91  61  36 E6        30.07F HX  91
PEACHTREE CITY SUNNY     90  63  40 E9        30.07F HX  91
ROME           MOSUNNY   94  57  28 CALM      30.03F HX  92
WEST ATLANTA   SUNNY     92  60  34 S6        30.05F HX  91
GAINESVILLE    MOSUNNY   90  59  35 VRB3      30.10F
CARTERSVILLE   SUNNY     91  60  35 CALM      30.05F HX  90


CITY           SKY/WX    TMP DP  RH WIND       PRES   REMARKS
DALTON*        SUNNY     91  59  33 SE6       30.04F HX  90
LAWRENCEVILLE* MOSUNNY   91  63  38 CALM      30.07F HX  92
MARIETTA       MOSUNNY   89  61  38 VRB1      30.07F
KENNESAW*      MOSUNNY   91  57  31 S5        30.01  HX  90
CANTON*        MOSUNNY   91  45  19 E5        30.09F
BLAIRSVILLE*     N/A    N/A N/A N/A MISG      30.12F
$$

GAZ059>098-102>109-252000-
CENTRAL GEORGIA

CITY           SKY/WX    TMP DP  RH WIND       PRES   REMARKS
AUGUSTA-BUSH   MOSUNNY   90  66  45 E9        30.04F HX  92
AUGUSTA-DANIEL MOSUNNY   90  63  40 E8        30.06F HX  91
COLUMBUS       MOSUNNY   89  63  41 S9        30.01F HX  90
MACON          SUNNY     93  62  35 E9        30.03F HX  93
ROBINS AFB     MOSUNNY   93  67  42 E7        30.02F HX  96


CITY           SKY/WX    TMP DP  RH WIND       PRES   REMARKS
LAGRANGE*      SUNNY     95  65  37 E6        30.03F HX  97
MILLEDGEVILLE* SUNNY     91  68  46 E6        30.04F HX  95
$$

GAZ099>101-110>166-252000-
SOUTH GEORGIA

CITY           SKY/WX    TMP DP  RH WIND       PRES   REMARKS
SAVANNAH       PTSUNNY   88  65  46 E8        30.04F HX  90
VALDOSTA       CLOUDY    90  73  57 SE5       30.00F HX  98
ALMA           PTSUNNY   90  71  53 NE9       30.02F HX  96
ST SIMONS      MOSUNNY   84  71  65 E15       30.02F
FT STEWART     SUNNY     88  66  47 NE9       30.01F HX  91
ALBANY         MOSUNNY   90  65  43 E8        30.01F HX  92
HUNTER AFB     SUNNY     87  76  70 E8        30.02F HX  96
MOODY AFB      CLOUDY    88  69  53 E8        29.99F HX  92
BRUNSWICK      MOSUNNY   86  75  70 NE14G22   30.03F HX  95


CITY           SKY/WX    TMP DP  RH WIND       PRES   REMARKS
BAINBRIDGE*    MOSUNNY   91  64  40 CALM      29.99F HX  93
MOULTRIE*      MOSUNNY   88  70  55 CALM      30.02F HX  92
VIDALIA*       MOSUNNY   90  72  55 NE8       30.04F HX  96
WAYCROSS*      PTSUNNY   91  75  59 E9        30.01F HX 102
DOUGLAS*       MOSUNNY   88  68  51 NE14      30.03F HX  91
$$




USA.gov is the U.S. government's official web portal to all federal, state and local government web resources and services.